Wind_Speed
26 26 26 26 27 27 26 26 26 25 25 25 26 26 26 26 26 26 26 26 26 26 26 26 26 26 26 26 26 26 26 25 26 26 26 26 26 26 27 27 27 27 27
27 27 27 27 27 27 27 27 27 26 26 26 27 27 27 27 27 27 27 27 28 28 27 27 27 28 28 28 28 27 27 27 27 27 27 28 28 28 29 29 29 30 30
28 28 28 28 28 27 28 28 28 28 28 28 28 29 29 29 28 28 29 29 29 29 29 29 29 29 29 29 30 29 29 30 30 29 30 30 31 31 31 32 32 32 32
29 29 29 29 29 29 29 29 29 29 29 29 30 30 30 30 30 30 30 30 31 31 31 31 31 31 31 31 31 31 32 32 32 32 32 32 33 33 33 34 34 34 34
31 31 30 30 30 30 30 30 30 30 30 30 30 31 31 31 31 31 31 31 31 32 33 33 34 34 33 33 34 33 33 33 33 33 34 34 34 34 35 36 36 36 37
33 32 32 31 31 31 31 31 31 31 31 31 31 31 31 31 31 32 32 32 33 33 33 34 35 36 36 36 35 35 35 35 34 35 35 35 36 36 37 37 37 38 38
35 34 33 32 32 32 32 32 32 32 32 32 32 31 32 32 32 32 33 33 34 34 34 35 36 37 38 38 38 37 37 37 36 36 36 36 37 37 38 38 38 38 39
35 35 35 34 34 33 32 33 33 33 33 33 33 33 33 33 33 34 34 34 34 35 35 35 36 37 37 38 38 38 39 39 39 38 38 38 38 39 39 40 40 40 41
37 36 36 35 35 34 34 34 34 34 34 34 34 34 35 35 35 35 35 35 35 36 36 36 37 37 38 38 39 39 40 40 40 40 40 40 40 40 40 41 41 41 42
39 38 38 37 37 36 36 35 35 35 36 36 36 36 36 36 36 36 36 37 37 37 37 38 38 38 39 40 40 40 41 42 42 42 42 42 42 42 43 43 43 43 43
40 40 40 39 39 38 37 37 37 37 37 37 37 37 37 37 38 37 37 38 38 38 39 39 39 40 41 41 41 41 41 42 43 44 44 44 43 44 44 44 45 45 45
42 42 42 41 40 39 39 39 39 38 38 38 38 38 38 38 38 38 39 39 40 40 40 40 41 42 42 42 43 43 43 42 43 44 44 45 45 45 46 46 46 46 46
44 44 44 43 42 42 41 41 41 40 40 40 40 40 40 40 40 40 40 40 41 41 42 42 43 43 43 43 43 44 44 44 44 45 45 46 46 46 47 48 47 48 48
44 45 45 44 44 44 44 43 43 42 42 42 41 41 41 42 42 42 42 42 42 43 44 43 44 44 44 44 44 45 46 46 46 47 47 47 47 47 47 48 49 48 49
44 45 45 45 45 45 44 45 45 45 44 44 43 43 43 43 43 42 43 44 44 43 43 44 45 46 46 46 46 47 48 48 48 47 48 48 47 47 48 48 49 49 50
45 45 45 45 46 45 45 45 45 46 46 46 45 45 45 45 44 44 45 45 45 45 44 45 46 47 47 47 48 48 48 49 49 48 48 48 48 48 48 49 50 50 49
45 45 45 45 46 47 47 46 47 47 47 47 47 46 46 46 46 46 46 46 46 46 45 46 47 48 48 49 49 49 49 49 49 49 49 49 49 49 49 49 49 50 49
46 46 46 46 46 46 46 47 48 48 48 48 48 48 48 48 48 47 48 48 48 48 48 48 49 49 49 50 50 49 49 49 49 49 49 49 50 50 49 50 50 50 51
46 46 46 47 47 48 48 47 48 49 49 50 50 50 50 50 50 50 50 50 50 50 50 50 50 50 50 51 50 50 50 50 50 50 50 49 50 50 50 50 51 51 52
48 48 48 49 49 49 49 49 49 50 50 51 51 51 51 51 52 52 51 51 51 52 52 51 51 51 51 51 51 50 50 50 50 50 50 50 50 50 51 51 51 52 52
50 50 50 50 51 51 51 51 51 51 52 52 52 52 52 52 52 53 53 52 52 53 53 52 52 51 52 51 51 51 51 51 51 51 51 51 51 51 52 52 52 52 53
49 50 51 51 51 51 51 52 52 52 52 53 53 53 53 53 53 54 53 53 52 52 52 52 52 52 52 52 52 52 52 52 52 52 52 52 52 52 52 52 53 53 53
48 49 50 50 50 51 52 52 52 52 52 53 53 54 54 54 53 53 53 53 52 52 52 52 53 53 53 53 53 54 53 53 53 52 53 53 54 54 53 53 53 54 54
47 47 48 49 50 51 51 52 52 52 52 52 52 52 53 53 52 52 53 53 53 53 53 53 53 53 54 54 54 54 53 53 53 53 53 54 55 56 56 55 55 55 56
47 47 48 49 50 50 51 51 52 52 53 52 52 53 53 53 53 53 53 53 53 53 52 52 53 53 53 53 53 54 54 54 54 54 54 55 55 56 57 57 57 57 57
46 47 48 49 50 50 51 51 52 52 52 53 52 52 52 52 53 53 53 53 52 52 52 52 52 52 52 53 53 54 54 54 55 55 55 56 56 56 56 57 58 57 57
Wind_Direction
251 251 252 253 254 253 254 254 254 255 255 255 255 255 255 255 256 257 258 257 255 253 252 253 254 254 254 254 255 256 258 260 260 260 259 259 259 259 259 259 260 261 262
252 252 252 253 253 253 254 254 254 255 255 256 256 256 256 256 257 257 257 258 256 254 254 253 254 255 255 255 256 257 259 259 260 261 261 261 261 261 262 262 262 263 263
251 252 253 253 254 253 254 255 255 256 256 257 256 256 257 258 258 258 258 258 258 255 254 254 254 254 255 256 258 259 260 262 262 262 262 263 263 263 264 264 264 265 265
250 251 252 253 254 253 255 256 256 257 257 258 258 257 258 259 260 260 260 259 259 256 255 256 256 256 256 257 259 260 261 262 264 264 264 265 265 265 266 266 266 266 265
250 250 251 253 254 254 255 257 257 257 258 259 259 259 259 259 260 260 260 261 260 258 257 256 256 256 256 258 259 260 262 263 264 264 265 266 267 267 267 268 268 266 266
250 250 251 252 253 254 256 257 257 258 259 260 260 260 259 259 260 259 260 262 261 260 259 258 258 257 257 258 259 260 262 263 263 264 265 268 269 269 269 269 269 268 266
250 250 251 252 253 254 255 256 257 258 259 260 261 260 260 259 261 262 262 262 261 259 260 259 260 259 258 258 259 261 262 262 264 265 267 268 270 270 270 269 269 268 268
249 250 250 251 253 254 255 256 258 258 259 261 261 261 261 261 262 263 263 262 261 261 260 260 260 260 260 260 260 261 263 263 264 266 267 268 270 271 271 271 269 269 269
248 250 251 253 253 253 256 257 257 257 259 260 261 261 261 262 263 264 263 263 262 262 261 261 261 261 261 262 262 262 264 265 266 267 268 269 270 271 271 272 271 269 269
248 250 251 252 254 255 256 257 258 258 258 260 261 262 263 263 264 264 263 263 263 263 263 262 261 262 262 263 263 264 265 266 267 268 269 269 271 272 272 272 272 272 271
249 251 252 253 254 255 255 257 258 259 259 261 262 263 264 265 264 263 263 263 263 264 264 263 262 262 264 265 265 266 267 268 269 269 270 271 271 272 272 273 273 273 273
250 251 251 253 254 254 255 256 257 259 260 261 262 263 265 265 265 265 264 264 264 265 265 264 263 264 265 266 266 267 267 268 270 270 271 272 272 273 273 273 273 273 273
251 251 252 254 254 254 254 256 257 258 260 261 262 262 263 264 266 266 265 265 265 266 266 265 265 265 265 266 267 267 267 268 270 272 272 273 273 274 274 274 273 273 273
253 253 254 255 256 255 254 255 256 259 261 261 261 262 263 265 266 267 267 266 265 266 267 266 266 265 266 266 267 268 269 269 271 272 273 273 274 275 276 275 274 274 273
253 253 254 255 256 256 256 256 257 260 261 261 261 262 264 265 267 268 267 267 266 266 267 267 266 266 266 267 268 269 270 270 272 272 273 274 274 275 276 276 275 274 275
253 253 255 256 256 257 257 258 258 259 261 262 263 263 265 266 268 269 268 267 266 266 268 268 267 267 267 268 269 270 270 270 271 272 273 273 274 275 276 276 276 275 275
254 255 255 256 258 258 259 259 259 260 261 262 263 264 265 266 267 268 269 268 267 267 268 269 268 268 268 268 269 270 271 270 271 272 273 273 274 275 276 276 276 275 276
255 257 257 257 258 259 260 260 261 261 262 262 263 264 265 266 267 267 268 268 268 268 269 269 270 269 269 269 269 270 271 270 271 272 272 273 274 275 276 276 276 276 276
257 258 258 258 258 259 260 261 261 261 261 263 264 265 266 266 266 267 267 268 268 268 269 270 271 270 270 270 269 270 270 270 270 271 272 273 274 275 276 276 277 277 277
258 258 259 259 259 260 260 261 261 261 262 264 264 265 265 266 266 266 267 268 268 268 269 270 271 271 270 270 269 269 269 270 271 271 272 273 274 275 276 276 277 278 278
258 258 259 260 260 260 261 262 262 263 263 263 263 264 265 266 266 266 267 267 268 268 268 269 270 270 270 269 269 268 269 270 271 272 273 274 274 275 276 277 277 278 278
259 259 259 260 260 261 262 262 263 263 263 263 264 264 265 265 266 266 267 268 269 269 269 269 269 270 270 269 268 268 270 270 271 272 273 274 275 276 277 277 278 278 279
259 259 259 260 260 261 262 262 262 263 264 264 264 264 265 266 267 267 267 267 268 268 268 268 269 269 269 269 268 268 269 270 272 273 273 274 275 276 277 278 278 279 279
259 260 260 260 261 262 262 263 263 263 263 264 264 264 265 265 265 266 267 268 269 269 268 268 268 268 268 268 269 269 269 270 272 273 274 275 275 276 277 277 279 279 280
260 260 260 261 261 263 263 264 264 264 264 264 265 265 265 265 265 266 267 269 269 269 269 268 268 268 268 269 269 269 269 270 272 273 274 275 275 276 277 278 279 279 279
263 263 263 262 262 263 265 265 265 265 265 265 266 266 266 267 267 267 267 268 268 268 268 268 268 268 268 269 269 270 270 270 271 273 274 275 276 277 277 278 279 279 280
Height
5777 5778 5779 5780 5781 5782 5783 5783 5784 5785 5786 5786 5787 5788 5789 5789 5790 5791 5792 5793 5794 5795 5796 5797 5798 5799 5800 5801 5802 5803 5804 5804 5805 5806 5806 5807 5807 5808 5808 5809 5809 5809 5810
5771 5772 5773 5774 5775 5776 5777 5777 5778 5779 5780 5780 5781 5782 5782 5783 5784 5785 5785 5786 5787 5788 5789 5791 5792 5793 5794 5795 5796 5797 5797 5798 5799 5799 5800 5800 5801 5801 5802 5802 5803 5803 5803
5764 5765 5766 5767 5768 5769 5770 5771 5772 5772 5773 5774 5775 5775 5776 5776 5777 5778 5778 5779 5780 5781 5782 5783 5785 5786 5787 5788 5789 5790 5791 5791 5792 5792 5793 5793 5794 5794 5795 5795 5795 5796 5796
5757 5759 5759 5760 5761 5762 5763 5764 5765 5766 5766 5767 5768 5768 5769 5769 5770 5771 5771 5772 5773 5773 5775 5776 5777 5778 5779 5780 5781 5782 5783 5784 5784 5785 5785 5786 5786 5786 5787 5787 5787 5788 5788
5750 5751 5752 5753 5754 5755 5756 5757 5758 5759 5759 5760 5760 5761 5761 5762 5762 5763 5764 5764 5765 5765 5766 5767 5769 5770 5771 5772 5773 5774 5775 5776 5776 5777 5777 5777 5778 5778 5778 5778 5778 5778 5779
5742 5744 5745 5746 5747 5748 5749 5750 5751 5752 5752 5753 5753 5754 5754 5754 5755 5755 5756 5756 5756 5757 5758 5759 5760 5761 5762 5764 5765 5766 5767 5767 5768 5768 5768 5769 5769 5769 5769 5769 5769 5768 5769
5734 5736 5737 5739 5740 5741 5742 5742 5743 5744 5745 5745 5746 5746 5746 5747 5747 5747 5747 5748 5748 5748 5749 5750 5751 5752 5753 5755 5756 5757 5758 5758 5759 5759 5760 5760 5760 5759 5759 5759 5759 5759 5759
5726 5728 5729 5730 5732 5733 5734 5735 5735 5736 5737 5737 5738 5738 5739 5739 5739 5739 5739 5739 5739 5739 5740 5741 5742 5743 5744 5745 5746 5747 5748 5748 5749 5750 5750 5750 5750 5750 5750 5749 5749 5749 5749
5717 5719 5721 5722 5723 5725 5726 5727 5727 5728 5729 5729 5730 5731 5731 5731 5731 5730 5730 5730 5730 5730 5730 5731 5732 5733 5734 5735 5736 5737 5738 5738 5739 5739 5739 5739 5739 5739 5739 5739 5738 5738 5738
5708 5710 5712 5713 5715 5716 5717 5718 5719 5720 5720 5721 5721 5721 5722 5722 5722 5721 5721 5721 5721 5721 5721 5721 5722 5723 5724 5725 5726 5727 5727 5728 5728 5728 5728 5728 5728 5728 5728 5727 5727 5726 5726
5699 5701 5703 5704 5705 5707 5708 5709 5710 5711 5711 5712 5712 5712 5712 5712 5712 5712 5712 5711 5711 5711 5711 5712 5712 5713 5714 5715 5715 5716 5716 5717 5717 5717 5716 5716 5716 5716 5716 5715 5714 5714 5713
5689 5691 5693 5694 5696 5697 5699 5700 5701 5701 5702 5703 5703 5703 5703 5703 5703 5702 5702 5702 5702 5702 5701 5702 5702 5703 5703 5704 5704 5705 5705 5705 5705 5705 5705 5705 5704 5704 5703 5703 5702 5701 5700
5679 5681 5683 5684 5686 5687 5689 5690 5691 5692 5692 5693 5693 5693 5693 5693 5693 5693 5692 5692 5692 5691 5691 5691 5691 5692 5692 5693 5693 5694 5694 5694 5694 5694 5693 5693 5692 5692 5691 5690 5689 5688 5687
5668 5670 5672 5674 5675 5677 5678 5679 5680 5681 5682 5682 5683 5683 5683 5683 5682 5682 5682 5682 5681 5681 5680 5680 5680 5680 5681 5681 5682 5682 5682 5682 5682 5682 5681 5681 5680 5679 5678 5677 5676 5675 5674
5657 5659 5661 5663 5664 5666 5667 5669 5670 5670 5671 5671 5672 5672 5672 5672 5671 5671 5670 5670 5671 5671 5670 5669 5669 5669 5669 5670 5670 5670 5670 5670 5670 5669 5669 5668 5667 5667 5666 5664 5663 5662 5661
5646 5648 5650 5652 5653 5654 5656 5657 5658 5659 5660 5660 5660 5661 5660 5660 5660 5659 5659 5659 5659 5659 5659 5658 5657 5657 5657 5658 5658 5658 5658 5658 5657 5656 5656 5655 5655 5654 5653 5651 5650 5649 5648
5635 5637 5638 5640 5642 5643 5644 5645 5646 5647 5648 5648 5648 5649 5648 5648 5648 5648 5647 5646 5646 5646 5647 5646 5645 5645 5645 5645 5645 5645 5645 5645 5644 5643 5643 5642 5642 5641 5640 5638 5637 5636 5635
5623 5625 5626 5628 5630 5631 5632 5633 5634 5634 5635 5635 5636 5636 5636 5636 5636 5635 5635 5634 5634 5634 5634 5634 5633 5632 5632 5632 5632 5632 5631 5631 5631 5630 5629 5629 5628 5627 5626 5625 5624 5622 5621
5611 5612 5614 5615 5617 5618 5619 5620 5621 5621 5622 5622 5623 5623 5623 5623 5622 5622 5622 5621 5621 5620 5620 5620 5620 5619 5619 5619 5619 5618 5618 5618 5617 5617 5616 5615 5615 5614 5613 5612 5610 5609 5608
5598 5600 5601 5603 5604 5605 5606 5606 5607 5608 5608 5609 5609 5609 5609 5609 5609 5608 5608 5608 5607 5606 5606 5606 5606 5606 5605 5605 5605 5605 5605 5604 5604 5603 5603 5602 5601 5600 5600 5599 5598 5596 5594
5585 5587 5588 5589 5590 5591 5592 5592 5593 5594 5594 5594 5594 5595 5595 5594 5594 5594 5594 5594 5593 5592 5592 5592 5592 5592 5591 5591 5591 5591 5591 5591 5590 5589 5589 5588 5587 5587 5585 5584 5583 5582 5580
5571 5573 5574 5575 5576 5577 5577 5578 5579 5579 5579 5579 5580 5580 5580 5580 5579 5579 5579 5579 5579 5578 5578 5578 5577 5577 5577 5577 5577 5577 5577 5577 5577 5577 5575 5574 5573 5572 5571 5570 5569 5567 5565
5558 5559 5560 5561 5562 5562 5563 5563 5564 5564 5564 5564 5564 5565 5565 5565 5564 5564 5564 5564 5564 5563 5563 5563 5563 5563 5563 5563 5563 5563 5562 5562 5562 5562 5561 5560 5558 5557 5556 5555 5553 5552 5550
5544 5545 5546 5547 5548 5548 5548 5549 5549 5549 5549 5549 5549 5549 5550 5550 5549 5549 5549 5549 5549 5549 5549 5548 5549 5548 5548 5548 5548 5548 5548 5548 5547 5546 5545 5545 5544 5542 5540 5539 5537 5536 5534
5531 5532 5532 5533 5533 5534 5534 5534 5534 5534 5534 5534 5534 5534 5534 5534 5535 5534 5534 5535 5534 5534 5533 5533 5533 5533 5533 5533 5533 5533 5533 5533 5533 5532 5530 5530 5529 5527 5525 5523 5521 5519 5518
5517 5518 5518 5518 5519 5519 5519 5519 5519 5519 5519 5519 5519 5519 5519 5519 5519 5518 5519 5519 5519 5519 5519 5518 5518 5518 5518 5518 5518 5518 5518 5517 5517 5517 5515 5514 5513 5511 5510 5508 5505 5503 5501